Location: Hradec Kralove
(50.2170°N, 15.8330°E)
Time: 15:23:47
(UTC+01:00)

Vanguard 1 - All Passes

Search period start: 27 January 2023 00:00
Search period end: 06 February 2023 00:00
Orbit: 649 x 3831 km, 34.3° (Epoch: 26 January)

Date Brightness Start Highest point End Pass type
(mag) Time Alt. Az. Time Alt. Az. Time Alt. Az.
27 Jan - 05:30:52 10° S 05:38:35 23° SE 05:49:56 10° E visible
27 Jan - 07:47:21 10° SW 07:58:53 43° SSE 08:17:25 10° ESE daylight
27 Jan - 10:06:57 10° WSW 10:21:41 44° S 10:42:27 10° SE daylight
27 Jan - 12:29:25 10° W 12:45:00 30° SSW 13:02:59 10° SSE daylight
27 Jan - 15:05:59 10° SW 15:06:32 10° SW 15:07:06 10° SW daylight
28 Jan - 05:50:09 10° SSW 05:58:28 28° SE 06:11:20 10° E visible
28 Jan - 08:07:29 10° WSW 08:19:15 44° S 08:38:11 10° ESE daylight
28 Jan - 10:27:31 10° WSW 10:42:13 41° SSW 11:02:31 10° SE daylight
28 Jan - 12:50:52 10° W 13:05:12 25° SW 13:21:28 10° S daylight
29 Jan - 06:09:45 10° SSW 06:18:28 32° SSE 06:32:30 10° E visible
29 Jan - 08:27:44 10° WSW 08:39:42 44° S 08:58:49 10° ESE daylight
29 Jan - 10:48:12 10° W 11:02:42 37° SSW 11:22:17 10° SE daylight
29 Jan - 13:12:57 10° W 13:25:20 20° SW 13:39:05 10° S daylight
30 Jan - 04:15:15 10° SSE 04:19:37 14° SE 04:25:07 10° ESE visible
30 Jan - 06:29:34 10° SW 06:38:36 35° SSE 06:53:30 10° ESE visible
30 Jan - 08:48:05 10° WSW 09:00:12 43° S 09:19:19 10° ESE daylight
30 Jan - 11:09:03 10° W 11:23:09 33° SSW 11:41:42 10° SSE daylight
30 Jan - 13:36:19 10° WSW 13:45:24 14° SW 13:55:11 10° SSW daylight
31 Jan - 04:33:43 10° S 04:39:21 19° SE 04:47:12 10° ESE visible
31 Jan - 06:49:33 10° SW 06:58:50 38° SSE 07:14:22 10° ESE visible
31 Jan - 09:08:30 10° WSW 09:20:42 41° S 09:39:36 10° SE daylight
31 Jan - 11:30:08 10° W 11:43:32 28° SSW 12:00:40 10° SSE daylight
01 Feb - 04:52:53 10° SSW 04:59:13 23° SE 05:08:40 10° E visible
01 Feb - 07:09:40 10° SW 07:19:10 39° S 07:35:08 10° ESE daylight
01 Feb - 09:29:02 10° WSW 09:41:12 38° SSW 09:59:39 10° SE daylight
01 Feb - 11:51:37 10° WSW 12:03:52 23° SW 12:19:00 10° S daylight
02 Feb - 05:12:24 10° SSW 05:19:12 27° SSE 05:29:50 10° ESE visible
02 Feb - 07:29:53 10° WSW 07:39:33 40° S 07:55:45 10° ESE daylight
02 Feb - 09:49:42 10° WSW 10:01:43 34° SSW 10:19:24 10° SE daylight
02 Feb - 12:13:49 10° WSW 12:24:09 18° SW 12:36:21 10° S daylight
03 Feb - 05:32:11 10° SW 05:39:18 30° SSE 05:50:48 10° ESE visible
03 Feb - 07:50:12 10° WSW 07:59:59 39° S 08:16:13 10° ESE daylight
03 Feb - 10:10:33 10° WSW 10:22:12 29° SSW 10:38:45 10° SSE daylight
03 Feb - 12:37:45 10° WSW 12:44:22 13° SW 12:51:41 10° SSW daylight
04 Feb - 03:37:06 10° SSE 03:40:36 14° SE 03:44:56 10° ESE visible
04 Feb - 05:52:08 10° SW 05:59:30 33° SSE 06:11:38 10° ESE visible
04 Feb - 08:10:36 10° WSW 08:20:28 36° S 08:36:29 10° SE daylight
04 Feb - 10:31:40 10° WSW 10:42:39 25° SSW 10:57:36 10° SSE daylight
05 Feb - 03:55:58 10° S 04:00:29 18° SE 04:06:38 10° ESE visible
05 Feb - 06:12:14 10° SW 06:19:46 34° S 06:32:21 10° ESE visible
05 Feb - 08:31:08 10° WSW 08:40:57 33° SSW 08:56:29 10° SE daylight
05 Feb - 10:53:16 10° WSW 11:03:04 20° SSW 11:15:42 10° S daylight
